CW9849 Weather Reports


Display with metric or nautical units.
time (UTC)temp
F
wind
direction
speed
MPH
gust
MPH
rain 1hr
in
rain 24hr
in
rain mn
in
humidity
%
barometer
mb
20260903174519 65 219 14.0 22.0 0.00 0.02 0.02 93 1019.6
20260903173013 66 212 14.0 22.0 0.00 0.02 0.02 92 1019.6
20260903171514 66 217 15.0 23.0 0.00 0.02 0.02 92 1019.6
20260903170010 66 226 16.0 22.0 0.00 0.02 0.02 91 1019.8
20260903164510 67 231 15.0 22.0 0.00 0.02 0.02 90 1019.8
20260903163009 67 215 13.0 22.0 0.00 0.02 0.02 89 1019.9
20260903161509 68 222 14.0 24.0 0.00 0.02 0.02 87 1020.0
20260903160007 69 219 15.0 22.0 0.00 0.02 0.02 88 1019.9
20260903154508 69 231 17.0 24.0 0.00 0.02 0.02 86 1020.0
20260903153006 68 248 15.0 23.0 0.00 0.02 0.02 91 1020.2
20260903151505 68 233 16.0 23.0 0.00 0.02 0.02 89 1020.5
20260903150005 69 222 13.0 22.0 0.00 0.02 0.02 86 1020.5
20260903144504 70 231 15.0 27.0 0.00 0.02 0.02 87 1020.5
20260903143003 71 219 14.0 22.0 0.00 0.02 0.02 85 1020.5
20260903141501 69 224 14.0 21.0 0.00 0.02 0.02 87 1020.4
20260903140112 70 252 15.0 23.0 0.00 0.02 0.02 87 1020.7
20260903134601 70 240 14.0 23.0 0.00 0.02 0.02 87 1020.5
20260903133100 71 221 13.0 20.0 0.00 0.02 0.02 86 1020.7
20260903131606 69 224 14.0 22.0 0.00 0.02 0.02 88 1020.8
20260903130056 69 226 14.0 21.0 0.00 0.02 0.02 89 1020.8
20260903124607 68 214 13.0 19.0 0.00 0.02 0.02 88 1021.0
20260903123054 71 219 11.0 18.0 0.00 0.02 0.02 85 1020.9
20260903121551 71 217 12.0 20.0 0.00 0.02 0.02 87 1020.8
20260903120100 70 224 12.0 18.0 0.00 0.02 0.02 87 1020.7
20260903114551 71 219 11.0 16.0 0.00 0.02 0.02 85 1020.8
20260903113055 70 222 12.0 18.0 0.00 0.02 0.02 86 1020.8
20260903111648 71 224 13.0 18.0 0.00 0.02 0.02 85 1020.8
20260903110048 70 217 11.0 18.0 0.00 0.02 0.02 88 1020.9
20260903104548 70 236 9.0 17.0 0.00 0.03 0.02 89 1020.8
20260903103041 69 219 11.0 16.0 0.00 0.03 0.02 92 1020.7
20260903101545 67 227 13.0 19.0 0.00 0.03 0.02 93 1020.8
20260903100037 67 231 13.0 18.0 0.00 0.03 0.02 93 1021.1
20260903094539 67 229 15.0 20.0 0.00 0.04 0.02 93 1021.0
20260903093039 66 238 15.0 22.0 0.00 0.04 0.02 95 1020.8
20260903091530 66 243 13.0 19.0 0.00 0.04 0.02 95 1020.8
20260903090028 66 238 14.0 20.0 0.00 0.04 0.02 95 1020.7
20260903084532 66 243 14.0 21.0 0.00 0.04 0.02 95 1020.8
20260903083028 66 229 15.0 21.0 0.00 0.04 0.02 95 1021.0
20260903081524 65 236 16.0 21.0 0.00 0.04 0.02 95 1020.8
20260903080037 65 229 14.0 20.0 0.00 0.04 0.02 95 1020.7
20260903074521 64 233 13.0 18.0 0.00 0.04 0.02 95 1020.7
20260903073023 64 177 11.0 18.0 0.00 0.04 0.02 95 1020.5
20260903071518 65 222 12.0 19.0 0.00 0.04 0.02 95 1020.3
20260903070018 64 226 13.0 20.0 0.00 0.04 0.02 95 1020.2
20260903064514 64 233 12.0 17.0 0.00 0.06 0.02 95 1020.1
20260903063012 64 224 14.0 18.0 0.00 0.06 0.02 95 1020.1
20260903061514 64 229 15.0 20.0 0.01 0.06 0.02 95 1020.1
20260903060010 64 238 15.0 20.0 0.01 0.06 0.02 95 1019.9
20260903054511 64 231 15.0 19.0 0.01 0.06 0.02 95 1019.9
20260903053007 64 233 14.0 17.0 0.01 0.06 0.02 95 1019.8
20260903051507 64 245 14.0 19.0 0.00 0.05 0.02 95 1019.8
20260903050012 64 233 14.0 19.0 0.00 0.05 0.02 95 1019.8
20260903044516 64 227 15.0 19.0 0.00 0.05 0.02 95 1019.8
20260903043003 64 231 14.0 20.0 0.00 0.05 0.02 95 1019.7
20260903041503 64 227 15.0 19.0 0.02 0.05 0.02 95 1019.8
20260903040124 64 231 15.0 19.0 0.02 0.05 0.02 95 1019.7
20260903033159 64 224 12.0 16.0 0.02 0.05 0.02 95 1019.8
20260903031559 64 233 13.0 18.0 0.00 0.03 0.00 95 1019.7
20260903030056 64 233 14.0 18.0 0.00 0.03 0.00 95 1019.8
20260903024555 64 233 14.0 20.0 0.00 0.03 0.00 95 1019.8
20260903023055 64 222 14.0 19.0 0.00 0.03 0.00 95 1019.8
20260903021557 64 233 13.0 21.0 0.00 0.03 0.00 95 1020.0
20260903020053 64 248 15.0 22.0 0.00 0.03 0.00 95 1019.9
20260903014553 64 236 14.0 20.0 0.00 0.03 0.00 95 1019.9
20260903013049 64 231 15.0 20.0 0.00 0.03 0.00 95 1019.9
20260903011551 64 226 15.0 21.0 0.00 0.03 0.00 95 1020.0
20260903010047 64 217 14.0 20.0 0.00 0.03 0.00 95 1019.9
20260903004546 64 229 16.0 19.0 0.00 0.03 0.00 95 1020.0
20260903003044 64 238 14.0 19.0 0.00 0.03 0.00 94 1020.0
20260903001558 64 226 15.0 20.0 0.00 0.03 0.00 94 1020.1
20260903000042 64 236 15.0 19.0 0.00 0.03 0.00 94 1020.0
20260902234544 64 238 14.0 20.0 0.00 0.03 0.00 94 1020.0
20260902233038 64 236 15.0 19.0 0.00 0.03 0.00 94 1020.1
20260902231536 64 224 15.0 22.0 0.00 0.03 0.00 94 1020.4
20260902230034 64 248 16.0 22.0 0.00 0.03 0.00 94 1020.4
20260902224537 64 226 17.0 23.0 0.00 0.03 0.03 94 1020.5
20260902223033 64 231 18.0 25.0 0.00 0.03 0.03 94 1020.3
20260902221537 64 233 19.0 25.0 0.00 0.03 0.03 94 1020.3
20260902220032 64 236 16.0 22.0 0.00 0.03 0.03 94 1019.9
20260902214529 64 233 15.0 25.0 0.00 0.03 0.03 94 1020.1
20260902213025 64 241 16.0 22.0 0.00 0.03 0.03 93 1019.8
20260902211526 64 226 15.0 23.0 0.00 0.03 0.03 93 1020.4
20260902210024 64 233 17.0 23.0 0.00 0.03 0.03 93 1020.3
20260902204523 64 231 15.0 26.0 0.00 0.03 0.03 93 1020.3
20260902203022 64 252 18.0 27.0 0.00 0.03 0.03 93 1020.2
20260902201521 64 234 20.0 24.0 0.00 0.03 0.03 93 1019.9
20260902200020 64 231 17.0 22.0 0.00 0.03 0.03 93 1020.0
20260902194521 64 227 19.0 25.0 0.00 0.03 0.03 92 1019.8
20260902193020 64 245 18.0 24.0 0.00 0.03 0.03 92 1019.9
20260902191619 64 240 17.0 29.0 0.00 0.03 0.03 91 1019.6
20260902190028 64 224 16.0 24.0 0.00 0.03 0.03 90 1019.5
20260902184517 65 226 17.0 23.0 0.00 0.04 0.03 89 1019.4
20260902183016 64 243 17.0 22.0 0.00 0.04 0.03 89 1019.3
20260902181515 65 229 18.0 24.0 0.00 0.04 0.03 89 1019.2
20260902180025 65 234 18.0 24.0 0.00 0.04 0.03 88 1019.5